"Time","Temp","Dewpoint","Humidity","Pressure","Direction","Speed","Gust","Precip","PrecipRate"
"00:04:57","72.1","70.9","96","29.84","296","0","0","0.00","0.00"
"00:09:56","72.1","70.9","96","29.84","296","0","0","0.00","0.00"
"00:14:57","72","70.7","95.7","29.84","296","0","0","0.00","0.09"
"00:19:58","71.9","70.7","96","29.84","296","0","0","0.00","0.01"
"00:24:59","71.9","70.7","96","29.84","296","0","0","0.00","0.00"
"00:29:56","71.9","70.7","96","29.84","296","0","0","0.00","0.00"
"00:34:57","71.9","70.7","96","29.84","296","0","0","0.00","0.00"
"00:39:57","71.9","70.7","96","29.84","296","0","0","0.00","0.00"
"00:44:58","71.8","70.6","96","29.84","296","0","0","0.00","0.00"
"00:49:59","71.7","70.5","96.3","29.84","314","0.4","3.5","0.00","0.00"
"00:54:56","71.9","71","97","29.84","320","1.8","10.4","0.00","0.00"
"00:59:56","71.8","70.6","96","29.86","312","3.3","10.4","0.00","0.00"
"01:04:57","71.6","70.1","95","29.86","342","1.3","4","0.01","0.01"
"01:09:57","71.4","69.8","94.7","29.86","346","0.5","2.3","0.01","0.01"
"01:14:56","71.1","69.6","95","29.86","346","0.5","2.3","0.01","0.01"
"01:19:57","71","69.5","95","29.84","346","0","1.2","0.01","0.01"
"01:24:58","70.9","69.4","95","29.84","346","0","0","0.01","0.01"
"01:29:59","70.8","69.3","95.1","29.84","346","0.8","2.3","0.01","0.01"
"01:34:56","70.6","69.3","95.7","29.84","346","0.1","2.3","0.01","0.01"
"01:39:56","70.6","69.4","96","29.84","346","0.1","1.2","0.01","0.01"
"01:44:57","70.4","69.2","96","29.84","346","0","1","0.01","0.01"
"01:49:58","70.4","69.2","96","29.84","346","0.3","2.3","0.01","0.01"
"01:54:59","70.4","69.2","96","29.84","346","0","0","0.01","0.01"
"01:59:59","70.3","69.1","96","29.84","346","0","0","0.01","0.01"
"02:04:57","70.2","69","96","29.84","266","0","1","0.01","0.01"
"02:09:58","70.1","68.9","96","29.84","266","1","2.3","0.01","0.00"
"02:14:58","70","68.8","96","29.84","266","0.1","2.3","0.01","0.00"
"02:19:59","69.9","68.7","96","29.84","266","0","1.2","0.01","0.00"
"02:24:59","69.9","68.7","96","29.84","266","0","0","0.01","0.00"
"02:29:56","69.9","68.8","96.5","29.84","266","0","0","0.01","0.00"
"02:34:57","69.9","68.8","96.4","29.83","266","0","0","0.01","0.00"
"02:39:58","69.8","68.9","97","29.83","266","0","0","0.01","0.00"
"02:44:59","69.8","68.8","96.8","29.83","266","0","0","0.01","0.00"
"02:49:57","69.7","68.5","96","29.83","266","0","0","0.01","0.00"
"02:54:58","69.6","68.4","96","29.83","266","0","0","0.01","0.00"
"02:59:58","69.6","68.5","96.3","29.83","266","0","0","0.01","0.00"
"03:04:59","69.6","68.7","97","29.83","266","0","0","0.01","0.00"
"03:09:57","69.7","68.8","97","29.83","266","0","0","0.01","0.00"
"03:14:57","69.7","68.8","97","29.83","266","0","0","0.01","0.00"
"03:19:57","69.6","68.7","97","29.83","266","0","0","0.01","0.00"
"03:24:58","69.5","68.4","96.4","29.83","266","0","0","0.01","0.00"
"03:29:59","69.3","68.1","96","29.83","266","0","0","0.01","0.00"
"03:34:58","69.2","68.1","96.3","29.83","266","0","0","0.01","0.00"
"03:39:56","69","68","96.6","29.83","266","0","0","0.01","0.00"
"03:44:58","68.9","68","97","29.83","266","0","0","0.01","0.00"
"03:49:59","68.8","67.7","96.3","29.83","266","0","0","0.01","0.00"
"03:54:56","68.7","67.8","96.9","29.83","266","0","0","0.01","0.00"
"03:59:58","68.6","67.7","97","29.83","266","0","0","0.01","0.00"
"04:04:58","68.6","67.7","97","29.83","266","0","0","0.01","0.00"
"04:09:56","68.6","67.7","97","29.83","266","0","0","0.01","0.00"
"04:14:59","68.5","67.6","97","29.83","266","0","0","0.01","0.00"
"04:19:56","68.4","67.5","97","29.83","266","0","0","0.01","0.00"
"04:24:56","68.2","67.2","96.5","29.83","266","0","0","0.01","0.00"
"04:29:57","68.1","67.2","96.9","29.83","266","0","0","0.01","0.00"
"04:34:57","68","67.1","97","29.83","266","0","0","0.01","0.00"
"04:39:57","67.8","66.9","97","29.83","266","0","0","0.01","0.00"
"04:44:57","67.6","66.7","96.8","29.84","266","0","0","0.01","0.00"
"04:49:58","67.5","66.6","96.9","29.84","266","0","0","0.01","0.00"
"04:54:59","67.4","66.5","97","29.84","266","0","0","0.01","0.00"
"04:59:56","67.4","66.5","97","29.84","266","0","0","0.01","0.00"
"05:04:57","67.4","66.5","97","29.84","266","0","0","0.01","0.00"
"05:09:59","67.3","66.4","97","29.84","266","0","0","0.01","0.00"
"05:14:58","67.2","66.3","97","29.84","266","0","0","0.01","0.00"
"05:19:59","67.2","66.3","97","29.84","266","0","0","0.01","0.00"
"05:24:57","67.2","66.3","97","29.84","266","0","0","0.01","0.00"
"05:29:58","67.1","66.2","97","29.84","266","0","0","0.01","0.00"
"05:34:56","67","66.1","97","29.84","266","0","0","0.01","0.00"
"05:39:56","66.9","66","97","29.84","266","0","0","0.01","0.00"
"05:44:57","66.8","65.9","97","29.84","290","0","0","0.01","0.00"
"05:49:59","66.8","65.9","97","29.84","290","0","0","0.01","0.00"
"05:54:56","66.7","65.8","97","29.84","290","0","0","0.01","0.00"
"05:59:58","66.8","66","97.6","29.84","290","0","0","0.01","0.00"
"06:04:59","66.9","66.3","98","29.84","290","0.2","2.3","0.01","0.00"
"06:09:58","67","66.1","97.2","29.84","290","0.5","2.3","0.01","0.00"
"06:14:58","67","66.2","97.5","29.85","290","0.4","2.3","0.01","0.00"
"06:19:58","67.3","66.7","98","29.85","290","0.3","1.2","0.01","0.00"
"06:24:55","67.5","66.9","98","29.85","290","0.1","2","0.01","0.00"
"06:29:56","67.7","67.1","98","29.86","290","0.6","2.3","0.01","0.00"
"06:34:57","67.8","67.2","98","29.86","244","1.1","3.5","0.01","0.00"
"06:39:56","67.9","67.3","98","29.86","223","0.6","2.3","0.01","0.00"
"06:44:57","68.2","67.6","98","29.86","223","0","0","0.01","0.00"
"06:49:57","68.4","67.8","98","29.86","223","0","0","0.01","0.00"
"06:54:58","68.6","68","98","29.86","223","0","0","0.01","0.00"
"06:59:59","68.7","68.1","98","29.87","223","0","0","0.01","0.00"
"07:04:56","68.8","68.2","98","29.87","223","0","0","0.01","0.00"
"07:09:57","69","68.4","98","29.87","223","0","0","0.01","0.00"
"07:14:56","69.1","68.5","98","29.88","223","0","0","0.01","0.00"
"07:19:57","69.3","68.7","98","29.88","223","0","0","0.01","0.00"
"07:24:58","69.5","68.9","98","29.88","223","0","0","0.01","0.00"
"07:29:59","69.8","69.2","98","29.88","223","0","0","0.01","0.00"
"07:34:59","70.2","69.6","98","29.88","223","0","0","0.01","0.00"
"07:39:59","70.4","69.8","98","29.88","223","0","0","0.01","0.00"
"07:44:57","70.7","70.1","98","29.89","223","0","0","0.01","0.00"
"07:49:58","70.8","70.2","98","29.89","224","0","0","0.01","0.00"
"07:54:59","71.1","70.5","98","29.89","224","0","0","0.01","0.00"
"07:59:58","71.2","70.6","98","29.89","229","0","0","0.01","0.00"
"08:04:59","71.4","70.8","98","29.89","229","0","0","0.01","0.00"
"08:09:56","71.5","70.6","97.1","29.89","229","0","0","0.01","0.00"
"08:14:59","71.7","70.9","97.4","29.89","229","0","0","0.01","0.00"
"08:19:56","72","71.1","97.1","29.89","229","0","0","0.01","0.00"
"08:24:57","72.2","71.2","96.7","29.89","229","0","0","0.01","0.00"
"08:29:58","72.4","71.4","96.7","29.89","229","0","0","0.01","0.00"
"08:34:59","72.8","71.7","96.6","29.89","229","0","0","0.01","0.00"
"08:39:59","73.3","72.2","96.5","29.89","229","0","0","0.01","0.00"
"08:44:59","73.7","72.2","95.2","29.89","226","0","0","0.01","0.00"
"08:49:56","74.2","72.7","95","29.89","226","0","0","0.01","0.00"
"08:54:56","74.7","72.1","91.5","29.89","221","0.2","2.3","0.01","0.00"
"08:59:57","75.2","72.3","90.7","29.89","219","0","1","0.01","0.00"
"09:04:58","75.7","72.2","88.9","29.88","219","0","0","0.01","0.00"
"09:09:59","76.3","72.7","88.9","29.88","212","0","1","0.01","0.00"
"09:14:59","76.8","72.2","85.9","29.88","187","0.2","2","0.01","0.00"
"09:19:59","77.2","72.5","85.4","29.88","172","0.1","1.2","0.01","0.00"
"09:24:55","77.7","72.8","84.7","29.88","172","0","1.2","0.01","0.00"
"09:29:56","78.3","73.1","84.1","29.88","173","0","0","0.01","0.00"
"09:34:57","78.6","73","82.9","29.87","171","0.1","2.3","0.01","0.00"
"09:39:56","79","73.1","82","29.87","179","0.1","3","0.01","0.00"
"09:44:59","79.4","73.6","82.5","29.87","181","0.2","3.5","0.01","0.00"
"09:49:58","80","73.8","81.6","29.86","184","0","0","0.01","0.00"
"09:54:58","80.4","73.7","80.1","29.86","184","0","0","0.01","0.00"
"09:59:57","80.7","73.5","78.8","29.86","173","0","1","0.01","0.00"
"10:04:59","81","73.8","78.8","29.86","165","0","1.2","0.01","0.00"
"10:09:57","81.3","74.5","79.8","29.86","151","0","1","0.01","0.00"
"10:14:56","81.7","74.5","78.8","29.86","170","0","1.2","0.01","0.00"
"10:19:55","82.1","74.4","77.6","29.85","175","0","1.2","0.01","0.00"
"10:24:59","82.4","74.4","76.8","29.85","168","0.2","3.5","0.01","0.00"
"10:29:58","82.9","75","77.3","29.85","176","0.1","1.2","0.01","0.00"
"10:34:57","83.2","74.6","75.4","29.84","198","0","1.2","0.01","0.00"
"10:39:56","83.4","74.2","74.1","29.84","185","0","2","0.01","0.00"
"10:44:56","83.2","73.9","73.9","29.84","186","0.1","2.3","0.01","0.00"
"10:49:52","83","74.5","75.6","29.84","187","0","0","0.01","0.00"
"10:54:56","83.1","74.5","75.5","29.84","187","0.1","2.3","0.01","0.00"
"10:59:59","83.2","74.4","74.9","29.84","206","0.1","3","0.01","0.00"
"11:04:56","83.4","74.7","75","29.84","190","0.2","2.3","0.01","0.00"
"11:09:58","83.9","74.3","73","29.84","180","0.2","2.3","0.01","0.00"
"11:14:55","84.4","74.8","73","29.85","194","0.8","6","0.01","0.00"
"11:19:58","84.9","74.8","71.7","29.85","201","1","3.5","0.01","0.00"
"11:24:58","85.4","74.5","70.2","29.85","194","1.5","6","0.01","0.00"
"11:29:57","85.7","74.5","69.3","29.85","190","2.4","4","0.01","0.00"
"11:34:57","86","73.7","66.9","29.84","168","2.6","4","0.01","0.00"
"11:39:59","86.3","73.9","66.7","29.84","202","1.7","4","0.01","0.00"
"11:44:59","86.8","74.4","66.8","29.84","219","1.5","4","0.01","0.00"
"11:49:59","86.9","74.1","65.9","29.84","189","2.6","5","0.01","0.00"
"11:54:57","86.4","73.7","66.2","29.84","174","3","5","0.01","0.00"
"11:59:56","86.2","74.6","68.5","29.84","195","2.6","7","0.01","0.00"
"12:04:56","86.5","75","68.7","29.84","212","3","9","0.01","0.00"
"12:09:58","87","75","67.7","29.84","185","2.8","9.2","0.01","0.00"
"12:14:56","87.4","74.5","65.6","29.84","215","2.5","4.6","0.01","0.00"
"12:19:56","87.7","73.3","62.4","29.84","185","2.4","5","0.01","0.00"
"12:24:56","88","73.4","62.1","29.84","214","1.7","4","0.01","0.00"
"12:29:56","88.1","73.6","62.4","29.84","197","2.4","5","0.01","0.00"
"12:34:56","88","73.3","62","29.83","185","2.5","5","0.01","0.00"
"12:39:59","88","72.2","59.7","29.83","191","2.8","6","0.01","0.00"
"12:44:59","88","72.7","60.7","29.83","204","1.3","5","0.01","0.00"
"12:49:59","88","73.9","63.1","29.83","230","2.3","4.6","0.01","0.00"
"12:54:59","88","72.9","61.1","29.83","232","2.4","7","0.01","0.00"
"12:59:59","88","72.9","60.9","29.83","204","2.8","5.8","0.01","0.00"
"13:04:59","88.2","73.1","61.2","29.82","218","1","3.5","0.01","0.00"
"13:09:57","88.5","72.3","58.9","29.82","156","2.6","6","0.01","0.00"
"13:14:57","88.6","72.1","58.4","29.82","176","2.5","7","0.01","0.00"
"13:19:57","88.7","72.4","58.9","29.81","180","1.8","3.5","0.01","0.00"
"13:24:58","88.8","72.3","58.3","29.81","156","2.1","6","0.01","0.00"
"13:29:59","88.9","72.1","57.8","29.81","152","1.1","4.6","0.01","0.00"
"13:34:58","88.9","73.2","60","29.81","187","2.2","5","0.01","0.00"
"13:39:56","89.4","73.2","59.1","29.81","242","1.3","5","0.01","0.00"
"13:44:58","89.7","73.2","58.6","29.81","209","2.2","8","0.01","0.00"
"13:49:59","89.8","74.2","60.3","29.80","181","2.5","8.1","0.01","0.00"
"13:54:59","90.1","72.8","57","29.80","186","2.9","6","0.01","0.00"
"13:59:56","90.1","73.1","57.6","29.80","190","3","9.2","0.01","0.00"
"14:04:57","90.2","72.4","56.2","29.80","156","2.9","6","0.01","0.00"
"14:09:59","90","72.4","56.5","29.80","147","0.5","4.6","0.01","0.00"
"14:14:59","90","72.6","56.9","29.80","207","1.1","5","0.01","0.00"
"14:19:59","89.9","73.2","58","29.79","188","1.3","9.2","0.01","0.00"
"14:24:56","90.1","72","55.6","29.79","174","0.7","3.5","0.01","0.00"
"14:29:58","90.3","72.8","56.7","29.79","182","0.1","3.5","0.01","0.00"
"14:34:59","90.6","73.1","56.6","29.79","196","1.8","6","0.01","0.00"
"14:39:58","90.7","72.5","55.3","29.79","161","2.7","7","0.01","0.00"
"14:44:57","90.6","71.9","54.5","29.79","189","3.1","6","0.01","0.00"
"14:49:58","90.5","72.9","56.5","29.79","197","3.7","9.2","0.01","0.00"
"14:54:59","90.6","72.9","56.2","29.79","186","2.7","6.9","0.01","0.00"
"14:59:56","90.6","73.5","57.5","29.79","190","0.8","5","0.01","0.00"
"15:04:57","90.5","73.1","56.8","29.79","183","0.6","5","0.01","0.00"
"15:09:58","90.2","72.2","55.8","29.79","192","2","7","0.01","0.00"
"15:14:59","90.2","72.6","56.4","29.79","184","0.8","6","0.01","0.00"
"15:19:58","90.1","72.2","55.7","29.79","165","0.7","5","0.01","0.00"
"15:24:56","90.2","73.1","57.4","29.79","183","0.3","3.5","0.01","0.00"
"15:29:59","90.8","73.8","57.6","29.79","225","1","5","0.01","0.00"
"15:34:57","91.4","74.1","57.2","29.78","182","0.9","5","0.01","0.00"
"15:39:58","91.8","73.7","55.8","29.78","169","0.8","5","0.01","0.00"
"15:44:59","91.9","72.9","54","29.78","172","0.7","6","0.01","0.00"
"15:49:56","91.5","72.8","54.6","29.78","173","2.7","7","0.01","0.00"
"15:54:58","91.3","74.5","58.1","29.78","194","2","6.9","0.01","0.00"
"15:59:58","91.3","72.9","55.1","29.78","169","1.9","6","0.01","0.00"
"16:04:59","90.6","72.7","55.9","29.78","128","2.9","10.4","0.01","0.00"
"16:09:56","89.6","72.2","56.7","29.78","202","4.6","11.5","0.01","0.00"
"16:14:57","89.1","72.3","57.7","29.78","189","2.7","5.8","0.01","0.00"
"16:19:56","89.3","73.5","59.9","29.77","164","2.6","6","0.01","0.00"
"16:24:56","89.7","73.4","58.7","29.77","174","3.1","6","0.01","0.00"
"16:29:57","90.2","74","59","29.77","188","2.2","6","0.01","0.00"
"16:34:59","90.5","73.6","57.6","29.77","176","2.3","5.8","0.01","0.00"
"16:39:59","90.6","73.5","57.4","29.77","207","3.2","7","0.01","0.00"
"16:44:57","90.5","73.4","57.4","29.77","177","4.1","9.2","0.01","0.00"
"16:49:59","90.2","72.8","56.7","29.77","157","3.4","10","0.01","0.00"
"16:54:56","89.8","72.5","57","29.77","186","3.9","9.2","0.01","0.00"
"16:59:58","89.1","72.5","58.1","29.77","170","3.8","9.2","0.01","0.00"
"17:04:59","89","71.7","56.8","29.77","157","3.9","10","0.01","0.00"
"17:09:56","89","72.7","58.7","29.77","178","3.3","9.2","0.01","0.00"
"17:14:57","89.3","72.9","58.7","29.77","185","3.8","9.2","0.01","0.00"
"17:19:57","89.5","72.9","58.3","29.76","181","3.6","7","0.01","0.00"
"17:24:58","89.5","73.3","58.9","29.76","174","4","10.4","0.01","0.00"
"17:29:58","89.4","74","60.6","29.76","164","5.4","12","0.01","0.00"
"17:34:58","89","74.8","63","29.76","166","3.1","9.2","0.01","0.00"
"17:39:58","89.1","74.9","63.1","29.76","173","4","10","0.01","0.00"
"17:44:59","89.1","74.9","63.1","29.76","193","3.3","10","0.01","0.00"
"17:49:57","89","74.9","63.4","29.76","190","4.7","10.4","0.01","0.00"
"17:54:58","88.7","74.8","63.7","29.76","195","3.6","9","0.01","0.00"
"17:59:59","88.6","74","62.4","29.76","203","3.5","8.1","0.01","0.00"
"18:04:56","88.4","73.9","62.5","29.76","203","2.6","11.5","0.01","0.00"
"18:09:57","88.2","73.7","62.3","29.76","181","4.2","12","0.01","0.00"
"18:14:56","88.1","73.5","62.3","29.77","183","3.6","7","0.01","0.00"
"18:19:56","88","73.2","61.8","29.77","180","4.4","11","0.01","0.00"
"18:24:58","87.8","73.6","63","29.77","188","4","11.5","0.01","0.00"
"18:29:58","87.6","73.3","62.7","29.77","155","3.6","10.4","0.01","0.00"
"18:34:59","87.4","72.8","62","29.77","152","3.9","9.2","0.01","0.00"
"18:39:59","87.3","72.9","62.5","29.77","165","2.8","10","0.01","0.00"
"18:44:56","87","73.1","63.5","29.77","166","3.8","10.4","0.01","0.00"
"18:49:57","86.8","73.4","64.5","29.77","189","2","6","0.01","0.00"
"18:54:59","86.6","73.2","64.4","29.77","156","4.3","10","0.01","0.00"
"18:59:56","86.4","73.1","64.6","29.77","169","3.5","7","0.01","0.00"
"19:04:57","86.2","73","64.9","29.77","191","3.9","11","0.01","0.00"
"19:09:58","85.9","72.9","65.2","29.77","181","3.1","7","0.01","0.00"
"19:14:58","85.7","72.8","65.5","29.77","168","2.4","5","0.01","0.00"
"19:19:56","85.5","72.8","65.8","29.77","175","3.2","11.5","0.01","0.00"
"19:24:57","85.3","72.8","66.4","29.77","189","0.8","4","0.01","0.00"
"19:29:58","85.1","73","67.2","29.78","167","2","4","0.01","0.00"
"19:34:56","85","73","67.4","29.78","177","1","5","0.01","0.00"
"19:39:56","84.9","72.9","67.4","29.78","167","1","5","0.01","0.00"
"19:44:59","84.6","72.9","67.8","29.78","169","2.9","7","0.01","0.00"
"19:49:58","84.4","72.7","68","29.78","182","3.6","7","0.01","0.00"
"19:54:58","84.2","72.6","68.3","29.78","186","3.6","9.2","0.01","0.00"
"19:59:59","84","72.7","69","29.78","177","3","7","0.01","0.00"
"20:04:58","83.8","72.9","69.8","29.78","179","1.3","6","0.01","0.00"
"20:09:57","83.5","72.6","69.8","29.78","184","2.9","7","0.01","0.00"
"20:14:57","83.2","72.4","70","29.78","196","4.1","10.4","0.01","0.00"
"20:19:56","83","72.2","70","29.78","190","3.5","10.4","0.01","0.00"
"20:24:59","82.8","72.3","70.8","29.78","177","2.5","6","0.01","0.00"
"20:29:58","82.6","72.2","71","29.78","183","2.3","9","0.01","0.00"
"20:34:56","82.4","72.2","71.4","29.78","183","1.4","6","0.01","0.00"
"20:39:58","82.2","72.3","72","29.78","181","0.8","10","0.01","0.00"
"20:44:58","82.1","72.2","72.2","29.78","179","4","9.2","0.01","0.00"
"20:49:58","81.9","72","72.1","29.78","180","3","7","0.01","0.00"
"20:54:58","81.8","72.3","73","29.78","163","0.7","5.8","0.01","0.00"
"20:59:59","81.5","72","73","29.78","162","0.2","4","0.01","0.00"
"21:04:57","81.4","71.9","73","29.78","179","0.6","5","0.01","0.00"
"21:09:58","81.2","72","73.8","29.78","177","0.7","4.6","0.01","0.00"
"21:14:57","80.9","71.8","74","29.78","187","0.4","4","0.01","0.00"
"21:19:57","80.7","71.6","74.1","29.78","159","0.3","3.5","0.01","0.00"
"21:24:57","80.5","71.8","75","29.78","191","0","1","0.01","0.00"
"21:29:57","80.3","71.6","75","29.78","159","0.1","2.3","0.01","0.00"
"21:34:56","80.2","71.8","75.7","29.78","149","0","1.2","0.01","0.00"
"21:39:59","80","71.7","76","29.78","171","0","2.3","0.01","0.00"
"21:44:56","79.7","71.7","76.4","29.78","171","0","0","0.01","0.00"
"21:49:56","79.5","71.7","77","29.78","180","0","1","0.01","0.00"
"21:54:56","79.3","71.5","77.3","29.78","189","0.1","2.3","0.01","0.00"
"21:59:59","79.1","71.6","77.9","29.78","190","0","1","0.01","0.00"
"22:04:56","78.8","71.4","78.1","29.78","189","0","0","0.01","0.00"
"22:09:58","78.6","71.5","79","29.78","192","0.2","2.3","0.01","0.00"
"22:14:58","78.4","71.3","79","29.78","186","0.2","2.3","0.01","0.00"
"22:19:59","78.2","71.5","79.9","29.78","180","0.7","5","0.01","0.00"
"22:24:56","78.1","71.4","80","29.78","119","0","1","0.01","0.00"
"22:29:57","78.1","71.4","80","29.78","168","0.2","2.3","0.01","0.00"
"22:34:58","78","71.3","80","29.78","153","0.1","1.2","0.01","0.00"
"22:39:57","78","71.3","80","29.78","161","0","1","0.01","0.00"
"22:44:58","77.8","71.4","80.9","29.78","160","0","0","0.01","0.00"
"22:49:58","77.6","71.5","81.5","29.78","160","0","0","0.01","0.00"
"22:54:58","77.6","71.7","82","29.78","137","0","1.2","0.01","0.00"
"22:59:59","77.5","71.6","82","29.78","159","0","2","0.01","0.00"
"23:04:58","77.4","71.5","82","29.78","200","0.1","2.3","0.01","0.00"
"23:14:56","76.9","71.5","83.7","29.78","160","0.1","3","0.01","0.00"
"23:19:58","76.8","71.6","84","29.78","165","0","1.2","0.01","0.00"
"23:24:59","76.6","71.5","84.2","29.78","166","0","1","0.01","0.00"
"23:29:56","76.5","71.7","85","29.78","165","0","0","0.01","0.00"
"23:34:57","76.3","71.5","85.1","29.78","157","0","1","0.01","0.00"
"23:39:57","76.2","71.6","85.6","29.78","157","0","1.2","0.01","0.00"
"23:44:58","76","71.5","86","29.78","157","0","0","0.01","0.00"
"23:49:56","75.9","71.6","86.3","29.78","156","0","0","0.01","0.00"
"23:54:58","75.8","71.7","87","29.78","156","0","0","0.01","0.00"
"23:59:59","75.7","71.6","87","29.78","170","0","1","0.01","0.00"
